Whiteman AFB, MO

6:26 AM CST on November 18, 2017 (GMT -0600)
Whiteman Air Force Base

Weather History for KSZL - November, 2014

Change the Weather History Date:

Sunday, November 2, 2014

  Actual Average Record
Temperature  
Mean Temperature 52 °F -  
Max Temperature 62 °F 57 °F 77 °F (2016)
Min Temperature 43 °F 40 °F 21 °F (2006)
Degree Days  
Heating Degree Days 12    
Growing Degree Days 2 (Base 50)    
Moisture  
Dew Point 27 °F    
Average Humidity 39    
Maximum Humidity 49    
Minimum Humidity 30    
Precipitation  
Precipitation 0.00 in - - ()
Sea Level Pressure  
Sea Level Pressure 30.19 in    
Wind  
Wind Speed 13 mph (South)    
Max Wind Speed 23 mph    
Max Gust Speed 29 mph    
Visibility 10 miles    
Events      
Averages and records for this station are not official NWS values.
T = Trace of Precipitation, MM = Missing Value Source: NWS Daily Summary

Daily Weather History Graph

Daily Weather History Graph

Search for Another Location

Airport or City:

Trip Planner

Search our weather history database for the weather conditions in past years. The results will help you decide how hot, cold, wet, or windy it might be!

Date:

Astronomy

Nov. 02, 2014 Rise Set
Actual Time 6:42 AM CST 5:12 PM CST
Civil Twilight 6:14 AM CST 5:40 PM CST
Nautical Twilight 5:43 AM CST 6:11 PM CST
Astronomical Twilight 5:12 AM CST 6:42 PM CST
Moon 2:42 PM CST (11/2) 1:48 AM CST (11/2)
Length of Visible Light 11h 25m
Length of Day
10h 30m
Waxing Gibbous, 79% of the Moon is Illuminated
Nov 2
Waxing Gibbous
Nov 6
Full
Nov 14
Last Quarter
Nov 22
New
Nov 29
First Quarter

Hourly Weather History & Observations

Time (CST) Temp. Windchill Dew Point Humidity Pressure Visibility Wind Dir Wind Speed Gust Speed Precip Events Conditions
12:58 AM 43.2 °F 37.0 °F 22.6 °F 44% 30.31 in 10.0 mi SSE 11.5 mph - N/A   Overcast
1:58 AM 43.3 °F 38.1 °F 22.6 °F 44% 30.31 in 10.0 mi South 9.2 mph - N/A   Overcast
1:58 AM 43.7 °F 38.6 °F 23.5 °F 45% 30.30 in 10.0 mi South 9.2 mph - N/A   Overcast
2:58 AM 43.9 °F 39.3 °F 24.3 °F 46% 30.29 in 10.0 mi South 8.1 mph - N/A   Overcast
3:58 AM 44.1 °F 39.0 °F 25.3 °F 48% 30.29 in 10.0 mi South 9.2 mph - N/A   Mostly Cloudy
4:58 AM 44.2 °F 38.8 °F 26.1 °F 49% 30.28 in 10.0 mi SSE 10.4 mph - N/A   Overcast
5:58 AM 44.8 °F 39.4 °F 26.6 °F 49% 30.28 in 10.0 mi South 10.4 mph - N/A   Overcast
6:58 AM 45.5 °F 39.6 °F 26.2 °F 47% 30.28 in 10.0 mi SSE 12.7 mph - N/A   Mostly Cloudy
7:58 AM 46.2 °F 39.8 °F 25.9 °F 45% 30.28 in 10.0 mi South 15.0 mph 20.7 mph N/A   Mostly Cloudy
8:58 AM 48.9 °F - 25.3 °F 40% 30.28 in 10.0 mi South 18.4 mph 25.3 mph N/A   Partly Cloudy
9:58 AM 52.5 °F - 26.1 °F 36% 30.26 in 10.0 mi South 20.7 mph 26.5 mph N/A   Clear
10:58 AM 56.1 °F - 26.4 °F 32% 30.24 in 10.0 mi South 17.3 mph 23.0 mph N/A   Clear
11:58 AM 58.3 °F - 26.4 °F 30% 30.19 in 10.0 mi South 16.1 mph - N/A   Clear
12:58 PM 61.3 °F - 29.5 °F 30% 30.14 in 10.0 mi South 23.0 mph 28.8 mph N/A   Clear
1:58 PM 62.1 °F - 30.9 °F 31% 30.12 in 10.0 mi South 19.6 mph - N/A   Clear
2:58 PM 62.2 °F - 32.0 °F 32% 30.10 in 10.0 mi South 17.3 mph 27.6 mph N/A   Clear
3:58 PM 59.7 °F - 32.7 °F 36% 30.10 in 10.0 mi South 15.0 mph - N/A   Clear
4:58 PM 57.4 °F - 31.5 °F 37% 30.08 in 10.0 mi South 13.8 mph 20.7 mph N/A   Clear
5:58 PM 55.9 °F - 30.0 °F 37% 30.09 in 10.0 mi South 16.1 mph - N/A   Clear
6:58 PM 54.3 °F - 30.6 °F 40% 30.09 in 10.0 mi South 12.7 mph - N/A   Clear
7:58 PM 55.2 °F - 27.7 °F 35% 30.08 in 10.0 mi South 18.4 mph 25.3 mph N/A   Clear
8:58 PM 55.0 °F - 27.3 °F 34% 30.08 in 10.0 mi South 17.3 mph - N/A   Partly Cloudy
9:58 PM 54.0 °F - 28.0 °F 37% 30.09 in 10.0 mi South 13.8 mph - N/A   Mostly Cloudy
10:58 PM 52.9 °F - 28.9 °F 40% 30.09 in 10.0 mi SSW 15.0 mph - N/A   Partly Cloudy